DW9417 Weather Reports


Display with metric or nautical units.
time (UTC)temp
F
wind
direction
speed
MPH
gust
MPH
rain 1hr
in
rain 24hr
in
rain mn
in
humidity
%
barometer
mb
20260904090002 60 246 3.0 5.0 0.00 0.02 0.01 67 1019.2
20260904084503 61 208 3.0 7.0 0.00 0.13 0.01 67 1018.9
20260904083059 61 226 8.0 15.0 0.00 0.13 0.01 63 1018.7
20260904081557 61 221 4.0 8.0 0.00 0.13 0.01 67 1018.6
20260904080101 62 238 3.0 9.0 0.00 0.13 0.01 65 1018.3
20260904074555 63 248 4.0 11.0 0.00 0.22 0.01 62 1018.1
20260904073050 62 224 7.0 11.0 0.00 0.22 0.01 60 1017.8
20260904071550 65 242 6.0 14.0 0.00 0.22 0.01 57 1017.6
20260904070049 64 240 9.0 18.0 0.00 0.22 0.01 56 1017.5
20260904064547 63 242 10.0 16.0 0.00 0.22 0.01 58 1017.5
20260904063046 64 260 8.0 17.0 0.00 0.22 0.01 56 1017.2
20260904061550 64 253 8.0 12.0 0.00 0.22 0.01 55 1017.2
20260904060045 65 243 5.0 11.0 0.00 0.22 0.01 54 1017.1
20260904054543 64 236 6.0 12.0 0.00 0.23 0.01 56 1017.1
20260904053044 65 281 5.0 8.0 0.00 0.23 0.01 56 1017.1
20260904051548 64 266 6.0 11.0 0.00 0.23 0.01 53 1017.2
20260904050041 65 242 5.0 11.0 0.00 0.23 0.01 54 1017.3
20260904044538 64 234 10.0 18.0 0.00 0.23 0.01 55 1017.4
20260904043036 63 237 9.0 19.0 0.00 0.23 0.01 52 1017.5
20260904041533 63 229 7.0 15.0 0.00 0.23 0.01 61 1017.4
20260904040033 62 225 6.0 15.0 0.00 0.23 0.01 60 1017.5
20260904034546 63 234 5.0 23.0 0.00 0.23 0.01 62 1017.5
20260904033030 61 248 10.0 19.0 0.00 0.23 0.01 60 1017.3
20260904031528 62 228 9.0 17.0 0.00 0.23 0.01 61 1017.3
20260904030025 61 242 6.0 17.0 0.00 0.23 0.01 67 1017.3
20260904024524 61 242 9.0 21.0 0.00 0.23 0.01 67 1017.3
20260904023020 61 235 9.0 14.0 0.00 0.23 0.01 69 1017.5
20260904021518 59 220 6.0 15.0 0.00 0.23 0.01 71 1017.4
20260904020018 59 237 7.0 14.0 0.00 0.23 0.01 74 1017.3
20260904014514 59 241 6.0 12.0 0.00 0.23 0.01 73 1017.3
20260904013013 58 235 6.0 12.0 0.00 0.23 0.01 76 1017.2
20260904011533 59 233 4.0 11.0 0.00 0.23 0.01 75 1016.9
20260904010007 58 281 3.0 9.0 0.00 0.23 0.01 78 1016.7
20260904004503 57 236 4.0 10.0 0.00 0.23 0.01 80 1016.3
20260904003001 56 234 3.0 15.0 0.00 0.23 0.01 82 1016.3
20260904001600 56 238 4.0 12.0 0.00 0.23 0.01 82 1016.3
20260904000101 56 259 4.0 8.0 0.00 0.23 0.01 84 1016.2
20260903234551 55 250 2.0 5.0 0.00 0.23 0.01 86 1016.0
20260903233149 54 283 2.0 6.0 0.00 0.23 0.01 88 1015.5
20260903231549 54 269 2.0 4.0 0.00 0.23 0.01 88 1015.4
20260903230048 54 278 2.0 4.0 0.00 0.23 0.01 90 1015.2
20260903224544 54 255 1.0 3.0 0.00 0.23 0.01 90 1014.8
20260903223039 54 304 2.0 6.0 0.00 0.23 0.01 91 1014.6
20260903221538 54 306 3.0 8.0 0.00 0.23 0.01 90 1014.5
20260903220040 54 279 2.0 8.0 0.01 0.23 0.01 89 1014.5
20260903214541 54 277 5.0 12.0 0.01 0.23 0.01 87 1014.4
20260903213039 54 336 3.0 9.0 0.01 0.23 0.01 87 1014.3
20260903211531 54 257 4.0 7.0 0.01 0.23 0.01 87 1014.1
20260903210030 53 306 4.0 10.0 0.00 0.22 0.00 86 1013.7
20260903204528 53 313 4.0 8.0 0.00 0.22 0.00 87 1013.4
20260903203033 53 293 3.0 10.0 0.00 0.22 0.00 88 1013.2
20260903201534 53 304 1.0 9.0 0.00 0.22 0.00 89 1013.1
20260903200024 53 307 3.0 6.0 0.00 0.22 0.00 89 1013.0
20260903194521 54 306 4.0 8.0 0.00 0.23 0.00 90 1013.1
20260903193026 54 309 5.0 9.0 0.00 0.23 0.00 90 1013.2
20260903191517 54 296 5.0 9.0 0.00 0.23 0.00 90 1013.4
20260903190017 54 306 7.0 14.0 0.00 0.23 0.00 90 1013.5
20260903184514 54 315 4.0 9.0 0.00 0.23 0.00 90 1013.3
20260903183012 53 325 5.0 9.0 0.00 0.23 0.00 90 1013.3
20260903181513 53 333 4.0 9.0 0.00 0.23 0.00 89 1013.4
20260903180017 53 347 4.0 8.0 0.00 0.23 0.00 87 1013.4
20260903174504 54 310 6.0 10.0 0.00 0.23 0.00 85 1013.7
20260903173003 55 318 6.0 15.0 0.00 0.23 0.00 84 1013.7
20260903171612 55 299 6.0 12.0 0.00 0.23 0.00 84 1013.7
20260903170057 53 316 6.0 9.0 0.00 0.23 0.00 86 1013.8
20260903164612 53 309 4.0 9.0 0.00 0.23 0.00 87 1013.6
20260903163058 53 318 4.0 6.0 0.00 0.23 0.00 86 1013.6
20260903161545 53 319 3.0 10.0 0.00 0.23 0.00 85 1013.6
20260903160045 54 309 5.0 10.0 0.00 0.23 0.00 85 1014.0
20260903154547 53 299 3.0 9.0 0.00 0.23 0.23 87 1014.0
20260903153040 54 308 3.0 9.0 0.00 0.23 0.23 87 1014.1
20260903151538 54 310 3.0 8.0 0.00 0.23 0.23 87 1014.2
20260903150039 54 290 5.0 9.0 0.00 0.23 0.23 86 1014.3
20260903144543 55 270 2.0 6.0 0.00 0.23 0.23 87 1014.4
20260903143043 55 271 4.0 9.0 0.00 0.23 0.23 87 1014.6
20260903141535 56 294 2.0 7.0 0.00 0.23 0.23 88 1014.9
20260903140037 56 296 5.0 12.0 0.00 0.23 0.23 89 1015.1
20260903134530 56 300 5.0 10.0 0.00 0.23 0.23 89 1015.4
20260903133027 56 305 4.0 13.0 0.00 0.23 0.23 89 1015.4
20260903131526 56 289 3.0 7.0 0.00 0.23 0.23 90 1015.5
20260903130024 56 287 3.0 10.0 0.00 0.23 0.23 90 1015.6
20260903124523 56 301 5.0 10.0 0.00 0.23 0.23 90 1015.7
20260903123023 56 309 5.0 12.0 0.00 0.23 0.23 90 1015.7
20260903121530 56 306 7.0 10.0 0.00 0.23 0.23 91 1015.8
20260903120036 56 316 4.0 10.0 0.00 0.23 0.23 91 1015.8
20260903114522 56 309 3.0 6.0 0.00 0.23 0.23 91 1015.8
20260903113031 56 311 5.0 11.0 0.00 0.23 0.23 91 1015.7
20260903111519 56 322 3.0 8.0 0.00 0.23 0.23 90 1015.5
20260903110019 56 331 4.0 8.0 0.00 0.23 0.23 91 1015.4
20260903104525 57 328 4.0 8.0 0.00 0.23 0.23 91 1015.4
20260903103023 56 322 3.0 10.0 0.00 0.23 0.23 91 1015.3
20260903101525 57 328 4.0 9.0 0.00 0.23 0.23 91 1015.2
20260903100023 57 307 3.0 6.0 0.02 0.23 0.23 91 1015.0
20260903094527 57 295 4.0 8.0 0.02 0.23 0.23 90 1014.8
20260903093016 57 307 4.0 11.0 0.03 0.23 0.23 91 1015.0
20260903091516 57 300 4.0 9.0 0.02 0.22 0.22 91 1015.1